Temperature
18 18 18 18 18 18 18 17 17 17 17 17 17 18 18 18 18 18 18 18 18 18 18 18 18 18 18 18 17 17 17 17 17 17 17 17 17 16 16 16 16 16 16
18 18 18 18 18 18 18 17 17 17 17 17 17 18 18 18 18 18 18 18 18 18 18 18 18 18 18 17 17 17 17 17 17 17 17 17 17 17 16 16 16 16 16
18 18 18 18 18 18 18 18 17 17 17 17 17 18 18 18 18 18 18 18 18 18 18 18 18 18 18 18 17 17 17 17 17 17 17 17 17 17 17 17 17 16 16
18 18 18 18 18 18 18 18 18 17 17 18 18 18 18 18 18 18 18 18 18 18 18 18 18 18 18 18 17 17 17 17 17 17 17 17 17 17 17 17 17 17 17
18 18 18 18 18 18 18 18 18 18 17 18 18 18 18 18 18 18 18 18 18 18 18 18 18 18 18 18 18 18 17 17 17 17 17 17 17 17 17 17 17 17 17
18 18 18 18 18 18 18 18 17 18 18 18 18 18 18 18 18 18 18 18 18 18 18 18 18 18 18 18 18 18 18 18 17 17 17 17 17 17 17 17 17 17 17
18 18 18 18 18 18 18 18 18 18 18 17 18 18 18 18 18 18 18 18 18 18 18 18 18 18 18 18 18 18 18 18 18 18 18 17 17 17 17 17 17 17 17
18 18 18 18 18 18 18 17 18 18 18 18 18 18 18 18 18 18 18 18 18 18 18 18 18 18 18 18 18 18 18 18 18 18 18 17 17 17 17 17 17 17 17
18 18 18 18 18 18 18 18 18 18 18 18 18 18 19 19 19 19 18 18 18 18 18 18 18 18 18 18 17 18 18 18 18 18 18 17 17 17 17 17 17 17 17
18 18 18 18 18 18 18 18 18 17 17 18 17 18 18 18 18 19 18 18 18 18 18 18 18 18 18 17 18 18 18 18 18 18 17 17 17 17 17 17 17 17 17
18 18 18 18 18 18 18 18 18 17 18 18 18 18 18 18 18 18 19 18 18 18 18 18 18 18 18 17 17 18 18 18 18 18 18 17 17 17 17 17 17 17 17
18 18 18 18 18 18 18 18 18 18 18 17 17 18 18 18 18 18 18 18 18 18 18 18 18 18 18 17 17 18 18 18 18 18 18 17 17 17 17 17 17 17 17
18 18 18 18 18 18 18 18 18 18 17 17 17 17 18 18 18 18 18 18 18 18 18 18 18 18 18 17 17 18 18 18 17 17 17 17 17 17 17 17 17 17 17
18 18 18 18 18 18 18 18 18 18 18 17 17 17 17 17 17 17 17 18 18 18 18 18 18 18 17 17 17 17 17 17 17 17 17 17 17 17 17 17 17 16 16
18 18 18 18 18 18 18 18 18 18 17 17 17 17 17 17 17 17 17 17 17 18 18 18 18 17 17 17 17 17 17 17 17 17 17 17 17 17 17 17 17 16 16
18 18 18 18 18 18 18 18 17 17 17 17 17 17 17 17 17 17 17 17 17 17 18 18 17 17 17 17 17 17 17 17 17 17 17 17 17 16 16 16 16 16 16
18 18 18 17 17 17 17 17 17 17 17 17 17 17 17 17 17 17 17 17 17 17 17 17 17 17 16 16 16 16 16 16 16 16 16 16 16 16 16 16 16 16 16
18 18 17 17 17 17 17 17 17 17 17 17 17 17 17 17 17 17 17 17 17 17 16 16 16 16 16 16 16 16 16 16 16 16 16 16 16 16 16 16 16 16 16
18 17 17 17 17 17 17 17 17 17 17 16 16 16 16 16 16 17 16 16 16 16 16 16 16 16 16 16 16 16 15 15 15 16 16 16 16 16 16 16 16 16 16
17 17 17 17 17 17 17 17 16 16 16 16 16 16 16 16 16 16 16 16 16 16 16 16 16 16 16 15 15 15 15 15 15 15 15 15 15 15 15 15 15 15 15
17 17 17 17 17 17 17 16 16 16 16 16 16 16 16 16 16 16 16 16 16 16 16 16 16 16 15 15 15 15 15 15 15 15 15 15 15 15 15 15 15 15 15
16 16 16 16 16 16 16 16 16 16 16 16 16 16 16 16 16 16 16 16 15 15 15 15 15 15 15 15 15 15 14 14 14 15 14 14 14 14 14 14 15 15 15
16 16 16 16 16 16 16 16 16 16 15 15 15 15 16 15 15 15 15 15 15 15 15 15 15 14 14 15 14 14 14 14 14 14 14 14 14 14 14 14 14 14 14
15 15 15 15 15 15 16 16 16 15 15 15 15 15 15 15 15 15 14 14 14 14 14 14 14 14 14 14 14 14 14 13 14 14 14 13 14 14 14 14 14 14 14
15 15 15 15 15 15 15 15 15 15 14 14 14 14 14 14 14 14 14 14 14 14 14 14 14 14 14 14 14 13 13 13 14 14 14 13 13 13 13 13 13 13 13
15 14 14 14 14 15 15 15 15 15 14 14 14 14 14 14 14 14 14 13 13 13 13 13 13 13 13 13 13 13 13 13 13 13 13 13 13 13 13 13 13 12 12
Wind_Speed
5 5 4 4 5 6 6 4 4 3 2 2 2 2 2 1 2 2 4 8 8 8 8 8 9 9 9 10 10 10 10 10 10 11 11 11 11 12 12 12 12 12 12
5 4 4 4 4 5 5 4 3 3 2 2 2 2 2 2 2 3 2 6 9 9 9 9 9 9 9 9 10 11 11 11 11 11 11 12 12 12 13 13 13 12 12
5 4 4 4 4 5 5 4 4 3 3 3 3 2 2 2 2 3 3 3 6 10 10 9 8 8 8 9 10 11 12 12 12 12 12 12 12 13 14 14 14 14 13
5 4 4 4 4 4 4 3 3 3 2 2 3 3 2 2 3 3 3 4 4 5 9 10 9 9 8 9 9 10 11 12 12 12 12 12 12 12 13 14 14 15 14
6 5 4 3 5 4 4 4 3 2 2 2 2 3 3 3 3 3 3 4 4 5 5 10 11 10 10 9 9 9 10 11 11 12 12 12 12 12 12 13 13 14 14
6 5 4 4 5 4 4 3 3 3 3 3 3 3 3 3 3 3 4 4 5 6 6 6 8 10 11 10 9 9 10 11 11 12 12 12 13 12 13 13 13 13 14
6 5 4 4 5 4 4 4 4 5 4 3 3 2 3 4 4 4 4 4 4 5 5 5 6 5 7 11 11 10 10 10 11 12 13 13 13 13 13 13 13 14 14
6 6 6 5 5 4 5 5 5 4 4 4 3 2 3 4 4 5 4 4 4 4 5 5 5 6 6 6 7 10 10 10 10 11 12 12 13 14 14 14 14 14 15
6 6 6 5 5 5 5 6 5 6 4 4 3 3 3 3 2 4 5 4 4 4 4 4 6 6 7 7 6 9 10 10 10 10 11 11 12 13 13 14 14 14 15
6 6 7 6 5 5 5 6 6 5 6 4 3 4 4 3 3 3 4 4 4 4 5 5 5 6 7 7 6 6 8 9 10 10 10 11 11 12 13 13 14 14 15
5 6 6 6 6 5 6 6 5 6 5 5 5 4 4 4 6 5 4 4 4 4 4 5 5 5 6 7 7 5 7 8 9 9 10 10 10 11 11 12 13 13 13
4 5 6 6 6 6 6 6 6 8 6 6 6 5 5 5 4 4 5 5 4 4 4 4 5 5 5 6 5 2 5 7 8 8 9 9 9 10 10 11 11 12 12
4 4 5 6 6 6 6 7 7 7 8 7 7 6 6 6 5 5 6 5 5 4 4 5 5 4 5 5 4 4 6 7 8 8 8 8 9 9 10 10 11 11 12
4 4 5 5 6 7 7 7 7 8 7 8 9 8 7 7 7 7 6 6 6 5 5 5 3 4 3 4 3 4 5 6 7 8 8 8 9 9 9 10 10 10 11
4 5 5 6 6 7 7 7 7 7 7 8 8 9 8 7 7 7 6 6 6 7 6 5 4 3 3 3 3 5 5 4 6 7 7 8 8 8 9 9 9 9 9
4 4 5 6 6 6 7 7 7 7 7 7 7 7 8 7 6 6 6 6 7 7 7 5 4 4 3 5 4 5 6 6 8 8 8 8 9 9 9 10 9 9 9
3 4 4 5 5 6 6 6 7 7 8 7 7 7 8 8 6 6 6 6 6 7 8 7 5 4 5 6 5 6 7 7 6 9 9 9 9 9 9 9 9 9 9
5 4 4 4 5 5 6 6 7 7 7 7 7 7 7 6 7 7 6 7 6 6 8 8 6 5 6 6 6 7 6 6 6 7 10 9 9 9 10 10 10 10 9
6 5 5 5 6 6 6 7 7 7 7 7 7 7 7 7 7 6 6 7 7 7 7 8 8 5 6 5 5 6 6 5 7 6 9 10 10 10 11 11 11 10 10
6 6 6 6 6 6 6 6 7 7 7 6 6 6 7 7 7 7 6 7 7 6 7 7 7 6 5 5 5 6 6 5 6 6 5 6 8 11 12 12 12 11 10
6 6 6 6 6 6 5 6 6 7 6 6 6 6 6 6 5 6 6 6 6 6 6 6 6 6 5 4 5 5 6 6 6 5 5 6 6 6 8 11 11 10 10
5 5 5 6 6 5 2 3 5 6 6 6 6 6 6 6 5 5 4 5 6 7 7 7 6 6 6 6 5 6 6 5 6 4 5 6 5 6 5 6 6 8 9
5 5 5 5 5 4 3 4 5 6 6 6 5 5 5 3 4 4 5 6 6 7 8 8 8 7 6 5 6 7 6 7 7 5 5 7 5 5 5 4 6 8 9
4 5 5 5 5 4 3 4 5 7 7 6 6 5 5 5 4 3 4 5 5 5 6 7 6 6 6 4 5 7 7 7 7 5 5 6 5 5 4 4 6 7 8
4 4 5 5 5 4 4 4 6 6 6 6 6 6 6 6 3 3 5 5 5 5 4 4 4 5 4 4 5 5 5 5 6 5 4 5 5 5 5 5 4 7 8
5 5 4 5 6 5 4 5 6 6 6 5 5 5 5 5 4 4 6 6 6 5 5 4 5 6 6 5 6 6 6 6 6 5 3 4 5 4 5 4 3 3 4
Wind_Direction
161 156 156 164 169 163 167 173 166 157 172 179 215 228 239 246 256 234 161 166 187 199 204 203 204 209 216 223 224 224 223 224 225 223 223 225 225 223 224 223 223 225 225
162 167 165 164 172 176 172 173 169 177 202 203 229 245 256 252 237 245 218 170 183 195 201 204 207 214 223 229 228 227 226 226 227 225 226 226 227 228 228 227 226 227 227
168 170 169 174 178 181 182 186 182 193 206 216 227 240 244 252 252 239 233 206 187 191 197 204 211 217 223 228 230 228 226 226 226 226 228 228 229 231 231 231 230 229 230
178 183 182 179 174 186 191 185 195 197 212 234 233 238 239 229 234 227 223 213 212 200 190 197 208 215 219 226 230 228 225 226 226 228 231 232 234 234 232 230 231 231 231
189 195 192 182 188 194 196 201 185 202 209 225 240 226 225 221 224 222 224 227 223 223 211 187 202 211 218 225 230 230 229 231 230 229 230 233 235 235 232 229 231 231 231
193 203 195 188 199 198 200 201 197 209 214 220 240 231 227 224 223 217 225 222 223 226 225 215 206 205 212 223 230 233 235 235 234 233 231 233 235 235 232 231 232 232 232
195 203 207 192 204 203 205 204 201 205 208 214 233 233 225 220 223 214 229 239 228 229 226 228 235 229 208 209 221 231 238 241 240 236 233 235 236 235 234 233 233 233 233
197 198 204 206 202 202 204 205 208 218 214 208 228 234 227 214 216 218 223 226 236 235 236 230 230 233 248 231 208 217 233 242 243 239 236 236 237 234 234 234 234 234 234
204 209 207 217 214 216 207 211 212 218 226 225 226 237 245 242 226 208 214 220 230 243 246 248 239 234 237 245 240 211 221 231 238 239 239 239 239 236 235 236 237 237 237
210 210 213 214 216 222 215 219 210 217 222 225 225 237 252 271 256 237 223 225 236 243 250 254 247 239 239 242 241 238 221 228 235 240 244 243 242 239 239 239 240 241 241
208 212 216 217 215 222 220 227 218 226 227 232 235 235 234 238 245 257 256 247 242 244 243 246 250 244 238 241 245 236 213 226 235 242 246 248 247 244 244 245 246 245 244
212 217 221 218 220 221 217 222 223 223 231 237 241 238 236 240 240 247 259 260 257 252 248 250 247 242 236 240 235 209 227 231 235 240 243 247 249 249 247 248 248 247 248
227 219 226 220 222 219 220 221 224 230 227 227 232 237 241 246 250 252 260 267 269 263 251 247 242 243 241 239 227 200 230 228 232 236 240 244 247 247 247 249 249 249 250
245 238 231 229 227 225 226 223 227 226 225 227 232 236 240 242 245 248 254 261 269 264 249 250 251 243 244 248 230 224 243 215 230 236 239 243 245 246 248 248 246 245 246
245 240 238 237 235 230 230 228 231 232 229 231 234 231 238 243 244 248 248 250 259 268 264 247 245 245 251 259 241 251 256 216 222 232 240 244 243 243 246 246 245 242 238
255 255 251 248 243 240 237 236 237 234 234 236 238 240 241 244 246 244 242 243 248 258 269 265 258 268 280 274 240 252 250 221 222 224 233 240 243 244 245 243 240 237 234
251 252 252 250 245 240 238 237 242 236 236 238 240 239 239 244 242 239 241 246 251 256 262 267 261 253 253 264 261 256 249 246 233 208 219 233 238 241 243 241 238 235 233
243 243 244 245 249 243 240 238 240 243 238 236 238 242 244 241 238 243 243 246 248 249 254 264 266 257 250 249 253 258 259 254 256 205 210 225 232 237 239 238 237 236 233
242 245 242 243 247 247 242 240 240 242 239 238 238 239 243 244 245 247 248 249 250 248 246 253 257 258 259 252 254 257 259 260 263 233 212 218 225 231 233 233 234 236 234
240 242 243 244 245 246 242 244 244 242 239 239 236 238 243 243 244 244 246 249 252 254 250 253 257 255 258 256 254 263 265 258 268 268 255 245 229 226 227 226 227 228 230
240 241 242 242 243 243 244 247 248 244 242 240 235 238 240 241 249 251 257 250 249 251 253 253 254 254 256 258 256 261 267 272 266 262 264 256 241 240 230 222 221 225 231
245 243 240 240 241 245 229 248 260 255 250 242 239 237 231 223 218 222 246 261 266 257 260 261 258 258 256 257 260 265 269 271 273 259 266 268 262 258 249 240 206 214 227
240 243 244 246 249 250 213 223 248 255 251 246 241 240 245 230 224 235 223 228 250 259 263 267 267 270 268 266 263 262 262 265 271 271 267 270 261 261 261 248 192 211 222
241 245 248 250 253 248 202 225 245 248 251 245 241 238 239 238 241 245 250 250 252 253 251 254 262 268 274 278 261 261 265 258 259 250 250 271 271 272 280 270 192 199 214
248 250 251 247 248 243 206 225 252 252 243 240 237 234 233 232 211 245 246 251 255 256 238 234 260 265 274 269 272 269 263 261 268 266 242 267 279 286 281 261 214 193 208
251 256 257 255 252 250 216 216 241 252 244 240 233 227 219 219 201 233 240 244 247 253 258 243 239 240 244 235 225 249 266 266 275 277 266 274 281 288 284 264 257 246 237
Height
1546 1548 1549 1551 1553 1555 1556 1557 1558 1560 1560 1561 1563 1564 1565 1566 1567 1568 1568 1568 1568 1568 1569 1569 1570 1570 1571 1571 1571 1572 1572 1572 1573 1573 1573 1573 1574 1574 1575 1576 1576 1577 1577
1546 1548 1550 1551 1553 1555 1556 1557 1559 1559 1560 1561 1562 1563 1564 1565 1566 1566 1567 1567 1567 1568 1568 1569 1569 1569 1569 1569 1570 1570 1570 1571 1571 1571 1571 1571 1572 1572 1573 1574 1574 1575 1575
1546 1548 1550 1551 1553 1554 1555 1557 1558 1559 1560 1561 1562 1563 1563 1564 1565 1565 1566 1567 1567 1567 1567 1568 1568 1568 1568 1568 1568 1568 1568 1569 1569 1569 1569 1569 1570 1570 1570 1571 1571 1572 1572
1545 1547 1549 1551 1552 1554 1555 1556 1558 1559 1560 1560 1561 1562 1563 1563 1563 1564 1565 1566 1566 1567 1567 1567 1567 1567 1567 1566 1566 1566 1566 1567 1566 1567 1567 1567 1567 1567 1568 1568 1569 1569 1570
1545 1547 1548 1550 1551 1553 1555 1556 1557 1558 1558 1559 1560 1561 1562 1562 1562 1563 1564 1564 1565 1565 1566 1565 1565 1565 1565 1565 1564 1564 1564 1564 1564 1564 1564 1564 1565 1565 1565 1565 1566 1566 1567
1544 1546 1548 1549 1551 1552 1554 1555 1555 1556 1557 1558 1559 1560 1560 1561 1561 1562 1562 1563 1563 1563 1564 1564 1563 1563 1563 1562 1562 1562 1562 1562 1562 1562 1562 1562 1562 1562 1562 1562 1563 1563 1563
1543 1544 1547 1548 1549 1551 1552 1553 1554 1555 1556 1557 1558 1559 1559 1559 1560 1560 1561 1561 1562 1562 1562 1561 1561 1561 1561 1560 1560 1560 1560 1559 1559 1559 1559 1559 1559 1559 1560 1560 1560 1560 1560
1541 1543 1544 1546 1548 1549 1550 1551 1552 1554 1555 1556 1556 1557 1558 1559 1558 1559 1559 1559 1559 1559 1559 1559 1559 1558 1559 1559 1558 1557 1557 1557 1556 1556 1556 1556 1556 1557 1557 1557 1557 1557 1557
1539 1541 1543 1545 1546 1547 1549 1549 1550 1551 1553 1554 1554 1555 1555 1555 1556 1557 1556 1556 1556 1556 1556 1556 1556 1555 1555 1555 1555 1554 1554 1554 1554 1553 1553 1553 1553 1554 1553 1553 1553 1553 1553
1537 1539 1541 1543 1544 1545 1546 1547 1549 1549 1550 1551 1552 1552 1553 1553 1553 1554 1554 1554 1553 1553 1553 1553 1553 1552 1552 1552 1551 1551 1551 1551 1551 1550 1550 1550 1550 1550 1550 1550 1550 1550 1549
1536 1538 1539 1540 1541 1543 1544 1545 1546 1547 1548 1548 1549 1550 1550 1550 1551 1551 1551 1551 1551 1551 1550 1550 1550 1550 1549 1549 1548 1548 1547 1547 1547 1547 1547 1547 1546 1546 1546 1546 1546 1546 1545
1535 1536 1537 1538 1539 1540 1541 1542 1543 1544 1544 1545 1546 1547 1548 1548 1548 1548 1548 1547 1548 1548 1547 1547 1547 1547 1546 1546 1545 1544 1544 1544 1543 1543 1543 1543 1542 1542 1542 1541 1541 1541 1541
1534 1534 1535 1535 1536 1537 1538 1539 1539 1541 1541 1542 1542 1544 1544 1545 1545 1545 1545 1545 1544 1544 1544 1544 1544 1543 1543 1542 1541 1540 1540 1540 1539 1539 1539 1539 1538 1538 1537 1537 1537 1536 1536
1532 1532 1532 1532 1533 1534 1535 1536 1537 1537 1538 1538 1539 1540 1540 1541 1541 1542 1542 1542 1541 1541 1541 1541 1541 1540 1540 1539 1538 1537 1536 1536 1535 1535 1535 1534 1534 1533 1533 1533 1532 1532 1531
1529 1529 1529 1529 1530 1530 1531 1532 1533 1533 1534 1534 1535 1536 1536 1537 1537 1537 1538 1538 1539 1538 1537 1537 1537 1537 1536 1535 1534 1533 1532 1531 1531 1530 1530 1530 1529 1529 1528 1528 1528 1527 1527
1525 1525 1526 1526 1527 1527 1527 1528 1529 1529 1530 1530 1531 1531 1531 1532 1533 1533 1533 1534 1534 1534 1533 1533 1533 1532 1531 1531 1530 1529 1528 1527 1526 1526 1525 1525 1524 1524 1524 1523 1523 1522 1522
1521 1522 1522 1522 1523 1523 1524 1524 1525 1525 1526 1526 1526 1527 1527 1527 1528 1529 1529 1529 1530 1530 1529 1528 1529 1527 1526 1526 1525 1525 1524 1523 1522 1521 1520 1520 1519 1519 1519 1518 1518 1517 1517
1518 1518 1518 1519 1519 1519 1520 1521 1521 1522 1522 1522 1522 1523 1523 1524 1524 1524 1524 1525 1525 1525 1525 1524 1524 1523 1522 1521 1521 1520 1520 1520 1518 1517 1516 1515 1515 1514 1514 1514 1513 1513 1513
1514 1515 1515 1515 1515 1516 1516 1517 1518 1518 1518 1518 1518 1519 1519 1520 1520 1520 1520 1520 1520 1520 1520 1519 1519 1518 1518 1517 1516 1516 1516 1514 1514 1513 1511 1510 1510 1509 1509 1509 1508 1508 1508
1510 1511 1511 1511 1512 1512 1512 1513 1514 1514 1514 1514 1514 1514 1515 1515 1515 1515 1515 1515 1515 1515 1515 1515 1514 1514 1513 1513 1512 1512 1511 1510 1509 1509 1507 1506 1505 1505 1504 1504 1503 1503 1503
1507 1507 1507 1507 1508 1508 1508 1509 1509 1510 1509 1510 1510 1510 1510 1511 1510 1511 1511 1511 1511 1511 1511 1511 1510 1509 1509 1508 1508 1507 1507 1506 1505 1504 1503 1502 1501 1500 1500 1499 1498 1498 1498
1503 1503 1503 1503 1504 1504 1504 1504 1505 1505 1505 1505 1505 1506 1506 1506 1506 1506 1506 1506 1507 1506 1507 1507 1506 1505 1504 1504 1503 1503 1503 1502 1501 1500 1499 1498 1497 1496 1495 1495 1494 1493 1493
1500 1500 1500 1500 1499 1500 1500 1500 1501 1501 1501 1501 1501 1501 1502 1502 1502 1502 1502 1502 1502 1501 1502 1502 1502 1501 1500 1499 1499 1498 1497 1497 1496 1495 1495 1494 1493 1492 1491 1490 1489 1488 1488
1497 1496 1496 1496 1496 1496 1496 1496 1496 1496 1497 1497 1497 1497 1497 1497 1498 1498 1498 1498 1497 1497 1497 1497 1497 1496 1496 1495 1494 1494 1493 1492 1491 1491 1490 1490 1489 1488 1487 1486 1484 1483 1483
1493 1493 1493 1492 1492 1491 1491 1491 1491 1492 1492 1492 1492 1493 1493 1493 1493 1493 1493 1493 1493 1493 1493 1493 1493 1492 1491 1491 1490 1490 1489 1489 1488 1487 1486 1486 1484 1483 1482 1481 1481 1480 1479
1490 1490 1489 1488 1488 1487 1486 1486 1487 1487 1488 1488 1488 1488 1488 1489 1489 1489 1489 1489 1489 1489 1490 1489 1489 1488 1487 1486 1485 1485 1485 1485 1484 1484 1482 1482 1481 1479 1479 1478 1477 1476 1475